Time,TemperatureF,DewpointF,PressureIn,WindDirection,WindDirectionDegrees,WindSpeedMPH,WindSpeedGustMPH,Humidity,HourlyPrecipIn,Conditions,Clouds,dailyrainin,SoftwareType,DateUTC
2013-05-03 00:06:00,46.4,27.8,29.29,North,-999,-999.0,-999.0,48,0.00,,,0.00,WSDL version 420,2013-05-03 05:06:00,
2013-05-03 00:11:00,46.4,27.8,29.29,North,-999,-999.0,-999.0,48,0.00,,,0.00,WSDL version 420,2013-05-03 05:11:00,
2013-05-03 00:16:00,46.4,27.8,29.29,North,-999,-999.0,-999.0,48,0.00,,,0.00,WSDL version 420,2013-05-03 05:16:00,
2013-05-03 00:21:00,46.4,27.8,29.29,North,-999,-999.0,-999.0,48,0.00,,,0.00,WSDL version 420,2013-05-03 05:21:00,
2013-05-03 00:26:00,46.4,27.8,29.29,North,-999,-999.0,-999.0,48,0.00,,,0.00,WSDL version 420,2013-05-03 05:26:00,
2013-05-03 00:31:00,46.3,27.7,29.29,North,-999,-999.0,-999.0,48,0.00,,,0.00,WSDL version 420,2013-05-03 05:31:00,
2013-05-03 00:36:00,46.2,27.6,29.29,North,-999,-999.0,-999.0,48,0.00,,,0.00,WSDL version 420,2013-05-03 05:36:00,
2013-05-03 00:41:00,46.2,27.6,29.29,North,-999,-999.0,-999.0,48,0.00,,,0.00,WSDL version 420,2013-05-03 05:41:00,
2013-05-03 00:46:00,46.0,27.5,29.29,North,-999,-999.0,-999.0,48,0.00,,,0.00,WSDL version 420,2013-05-03 05:46:00,
2013-05-03 00:51:00,46.0,27.5,29.29,North,-999,-999.0,-999.0,48,0.00,,,0.00,WSDL version 420,2013-05-03 05:51:00,
2013-05-03 00:56:00,46.0,27.4,29.29,North,-999,-999.0,-999.0,48,0.00,,,0.00,WSDL version 420,2013-05-03 05:56:00,
2013-05-03 01:01:00,45.9,27.3,29.29,North,-999,-999.0,-999.0,48,0.00,,,0.00,WSDL version 420,2013-05-03 06:01:00,
2013-05-03 01:06:00,45.9,27.3,29.29,North,-999,-999.0,-999.0,48,0.00,,,0.00,WSDL version 420,2013-05-03 06:06:00,
2013-05-03 01:11:00,45.9,27.3,29.29,North,-999,-999.0,-999.0,48,0.00,,,0.00,WSDL version 420,2013-05-03 06:11:00,
2013-05-03 01:16:00,45.8,27.2,29.26,North,-999,-999.0,-999.0,48,0.00,,,0.00,WSDL version 420,2013-05-03 06:16:00,
2013-05-03 01:21:00,45.7,27.1,29.26,North,-999,-999.0,-999.0,48,0.00,,,0.00,WSDL version 420,2013-05-03 06:21:00,
2013-05-03 01:26:00,45.5,27.1,29.26,North,-999,-999.0,-999.0,49,0.00,,,0.00,WSDL version 420,2013-05-03 06:26:00,
2013-05-03 01:31:00,45.4,27.4,29.26,North,-999,-999.0,-999.0,49,0.00,,,0.00,WSDL version 420,2013-05-03 06:31:00,
2013-05-03 01:36:00,45.3,27.3,29.26,North,-999,-999.0,-999.0,49,0.00,,,0.00,WSDL version 420,2013-05-03 06:36:00,
2013-05-03 01:41:00,45.1,27.1,29.26,North,-999,-999.0,-999.0,49,0.00,,,0.00,WSDL version 420,2013-05-03 06:41:00,
2013-05-03 01:46:00,45.0,27.0,29.26,North,-999,-999.0,-999.0,49,0.00,,,0.00,WSDL version 420,2013-05-03 06:46:00,
2013-05-03 01:51:00,44.8,26.9,29.26,North,-999,-999.0,-999.0,49,0.00,,,0.00,WSDL version 420,2013-05-03 06:51:00,
2013-05-03 01:56:00,44.7,26.7,29.26,North,-999,-999.0,-999.0,49,0.00,,,0.00,WSDL version 420,2013-05-03 06:56:00,
2013-05-03 02:01:00,44.6,27.1,29.26,North,-999,-999.0,-999.0,50,0.00,,,0.00,WSDL version 420,2013-05-03 07:01:00,
2013-05-03 02:06:00,44.4,27.0,29.26,North,-999,-999.0,-999.0,50,0.00,,,0.00,WSDL version 420,2013-05-03 07:06:00,
2013-05-03 02:11:00,44.3,26.8,29.26,North,-999,-999.0,-999.0,50,0.00,,,0.00,WSDL version 420,2013-05-03 07:11:00,
2013-05-03 02:16:00,44.2,26.7,29.26,North,-999,-999.0,-999.0,50,0.00,,,0.00,WSDL version 420,2013-05-03 07:16:00,
2013-05-03 02:21:00,44.1,26.6,29.26,North,-999,-999.0,-999.0,50,0.00,,,0.00,WSDL version 420,2013-05-03 07:21:00,
2013-05-03 02:26:00,44.1,26.6,29.26,North,-999,-999.0,-999.0,50,0.00,,,0.00,WSDL version 420,2013-05-03 07:26:00,
2013-05-03 02:31:00,44.0,26.5,29.26,North,-999,-999.0,-999.0,50,0.00,,,0.00,WSDL version 420,2013-05-03 07:31:00,
2013-05-03 02:36:00,43.9,26.5,29.26,North,-999,-999.0,-999.0,50,0.00,,,0.00,WSDL version 420,2013-05-03 07:36:00,
2013-05-03 02:41:00,43.8,26.3,29.26,North,-999,-999.0,-999.0,50,0.00,,,0.00,WSDL version 420,2013-05-03 07:41:00,
2013-05-03 02:46:00,43.7,26.3,29.26,North,-999,-999.0,-999.0,50,0.00,,,0.00,WSDL version 420,2013-05-03 07:46:00,
2013-05-03 02:51:00,43.6,26.2,29.26,North,-999,-999.0,-999.0,50,0.00,,,0.00,WSDL version 420,2013-05-03 07:51:00,
2013-05-03 02:56:00,43.5,26.1,29.26,North,-999,-999.0,-999.0,50,0.00,,,0.00,WSDL version 420,2013-05-03 07:56:00,
2013-05-03 03:01:00,43.5,25.8,29.23,North,-999,-999.0,-999.0,49,0.00,,,0.00,WSDL version 420,2013-05-03 08:01:00,
2013-05-03 03:06:00,43.5,25.6,29.23,North,-999,-999.0,-999.0,49,0.00,,,0.00,WSDL version 420,2013-05-03 08:06:00,
2013-05-03 03:11:00,43.5,25.6,29.23,North,-999,-999.0,-999.0,49,0.00,,,0.00,WSDL version 420,2013-05-03 08:11:00,
2013-05-03 03:16:00,43.5,25.6,29.23,North,-999,-999.0,-999.0,49,0.00,,,0.00,WSDL version 420,2013-05-03 08:16:00,
2013-05-03 03:21:00,43.6,25.2,29.23,North,-999,-999.0,-999.0,48,0.00,,,0.00,WSDL version 420,2013-05-03 08:21:00,
2013-05-03 03:26:00,43.7,25.3,29.23,North,-999,-999.0,-999.0,48,0.00,,,0.00,WSDL version 420,2013-05-03 08:26:00,
2013-05-03 03:31:00,43.7,24.8,29.23,North,-999,-999.0,-999.0,47,0.00,,,0.00,WSDL version 420,2013-05-03 08:31:00,
2013-05-03 03:36:00,43.8,24.9,29.23,North,-999,-999.0,-999.0,47,0.00,,,0.00,WSDL version 420,2013-05-03 08:36:00,
2013-05-03 03:41:00,43.7,24.8,29.23,North,-999,-999.0,-999.0,47,0.00,,,0.00,WSDL version 420,2013-05-03 08:41:00,
2013-05-03 03:46:00,43.7,24.8,29.23,North,-999,-999.0,-999.0,47,0.00,,,0.00,WSDL version 420,2013-05-03 08:46:00,
2013-05-03 03:51:00,43.5,25.1,29.23,North,-999,-999.0,-999.0,48,0.00,,,0.00,WSDL version 420,2013-05-03 08:51:00,
2013-05-03 03:56:00,43.4,25.0,29.23,North,-999,-999.0,-999.0,48,0.00,,,0.00,WSDL version 420,2013-05-03 08:56:00,
2013-05-03 04:01:00,43.2,24.9,29.26,North,-999,-999.0,-999.0,48,0.00,,,0.00,WSDL version 420,2013-05-03 09:01:00,
2013-05-03 04:06:00,43.0,24.6,29.26,North,-999,-999.0,-999.0,48,0.00,,,0.00,WSDL version 420,2013-05-03 09:06:00,
2013-05-03 04:11:00,42.8,24.5,29.26,North,-999,-999.0,-999.0,48,0.00,,,0.00,WSDL version 420,2013-05-03 09:11:00,
2013-05-03 04:16:00,42.7,24.7,29.23,North,-999,-999.0,-999.0,49,0.00,,,0.00,WSDL version 420,2013-05-03 09:16:00,
2013-05-03 04:21:00,42.5,24.7,29.23,North,-999,-999.0,-999.0,49,0.00,,,0.00,WSDL version 420,2013-05-03 09:21:00,
2013-05-03 04:26:00,42.3,24.5,29.23,North,-999,-999.0,-999.0,49,0.00,,,0.00,WSDL version 420,2013-05-03 09:26:00,
2013-05-03 04:31:00,42.2,24.7,29.23,North,-999,-999.0,-999.0,50,0.00,,,0.00,WSDL version 420,2013-05-03 09:31:00,
2013-05-03 04:36:00,42.0,24.7,29.23,North,-999,-999.0,-999.0,50,0.00,,,0.00,WSDL version 420,2013-05-03 09:36:00,
2013-05-03 04:41:00,41.8,24.5,29.23,North,-999,-999.0,-999.0,50,0.00,,,0.00,WSDL version 420,2013-05-03 09:41:00,
2013-05-03 04:46:00,41.6,24.6,29.23,North,-999,-999.0,-999.0,51,0.00,,,0.00,WSDL version 420,2013-05-03 09:46:00,
2013-05-03 04:51:00,41.5,24.7,29.23,North,-999,-999.0,-999.0,51,0.00,,,0.00,WSDL version 420,2013-05-03 09:51:00,
2013-05-03 04:56:00,41.3,24.5,29.23,North,-999,-999.0,-999.0,51,0.00,,,0.00,WSDL version 420,2013-05-03 09:56:00,
2013-05-03 05:01:00,41.2,24.4,29.23,North,-999,-999.0,-999.0,51,0.00,,,0.00,WSDL version 420,2013-05-03 10:01:00,
2013-05-03 05:06:00,41.2,24.4,29.23,North,-999,-999.0,-999.0,51,0.00,,,0.00,WSDL version 420,2013-05-03 10:06:00,
2013-05-03 05:11:00,41.0,24.7,29.23,North,-999,-999.0,-999.0,52,0.00,,,0.00,WSDL version 420,2013-05-03 10:11:00,
2013-05-03 05:21:00,40.7,24.5,29.26,North,-999,-999.0,-999.0,52,0.00,,,0.00,WSDL version 420,2013-05-03 10:21:00,
2013-05-03 05:26:00,40.6,24.4,29.26,North,-999,-999.0,-999.0,52,0.00,,,0.00,WSDL version 420,2013-05-03 10:26:00,
2013-05-03 05:31:00,40.6,24.6,29.23,North,-999,-999.0,-999.0,53,0.00,,,0.00,WSDL version 420,2013-05-03 10:31:00,
2013-05-03 05:36:00,40.6,24.9,29.23,North,-999,-999.0,-999.0,53,0.00,,,0.00,WSDL version 420,2013-05-03 10:36:00,
2013-05-03 05:41:00,40.6,24.9,29.23,North,-999,-999.0,-999.0,53,0.00,,,0.00,WSDL version 420,2013-05-03 10:41:00,
2013-05-03 05:46:00,40.6,24.9,29.26,North,-999,-999.0,-999.0,53,0.00,,,0.00,WSDL version 420,2013-05-03 10:46:00,
2013-05-03 05:51:00,40.6,24.9,29.26,North,-999,-999.0,-999.0,53,0.00,,,0.00,WSDL version 420,2013-05-03 10:51:00,
2013-05-03 05:56:00,40.8,25.0,29.26,North,-999,-999.0,-999.0,53,0.00,,,0.00,WSDL version 420,2013-05-03 10:56:00,
2013-05-03 06:01:00,40.7,25.0,29.23,North,-999,-999.0,-999.0,53,0.00,,,0.00,WSDL version 420,2013-05-03 11:01:00,
2013-05-03 06:06:00,40.7,24.9,29.23,North,-999,-999.0,-999.0,53,0.00,,,0.00,WSDL version 420,2013-05-03 11:06:00,
2013-05-03 06:11:00,40.8,25.0,29.23,North,-999,-999.0,-999.0,53,0.00,,,0.00,WSDL version 420,2013-05-03 11:11:00,
2013-05-03 06:16:00,40.8,25.0,29.23,North,-999,-999.0,-999.0,53,0.00,,,0.00,WSDL version 420,2013-05-03 11:16:00,
2013-05-03 06:21:00,40.8,25.0,29.23,North,-999,-999.0,-999.0,53,0.00,,,0.00,WSDL version 420,2013-05-03 11:21:00,
2013-05-03 06:26:00,40.8,25.0,29.23,North,-999,-999.0,-999.0,53,0.00,,,0.00,WSDL version 420,2013-05-03 11:26:00,
2013-05-03 06:31:00,40.8,24.5,29.23,North,-999,-999.0,-999.0,52,0.00,,,0.00,WSDL version 420,2013-05-03 11:31:00,
2013-05-03 06:36:00,40.7,24.5,29.23,North,-999,-999.0,-999.0,52,0.00,,,0.00,WSDL version 420,2013-05-03 11:36:00,
2013-05-03 06:41:00,40.6,24.4,29.23,North,-999,-999.0,-999.0,52,0.00,,,0.00,WSDL version 420,2013-05-03 11:41:00,
2013-05-03 06:46:00,40.6,24.4,29.26,North,-999,-999.0,-999.0,52,0.00,,,0.00,WSDL version 420,2013-05-03 11:46:00,
2013-05-03 06:51:00,40.6,24.4,29.26,North,-999,-999.0,-999.0,52,0.00,,,0.00,WSDL version 420,2013-05-03 11:51:00,
2013-05-03 06:56:00,40.6,24.4,29.26,North,-999,-999.0,-999.0,52,0.00,,,0.00,WSDL version 420,2013-05-03 11:56:00,
2013-05-03 07:01:00,40.6,24.4,29.26,North,-999,-999.0,-999.0,52,0.00,,,0.00,WSDL version 420,2013-05-03 12:01:00,
2013-05-03 07:06:00,40.8,24.4,29.26,North,-999,-999.0,-999.0,51,0.00,,,0.00,WSDL version 420,2013-05-03 12:06:00,
2013-05-03 07:11:00,41.0,24.3,29.26,North,-999,-999.0,-999.0,51,0.00,,,0.00,WSDL version 420,2013-05-03 12:11:00,
2013-05-03 07:16:00,41.2,24.5,29.26,North,-999,-999.0,-999.0,51,0.00,,,0.00,WSDL version 420,2013-05-03 12:16:00,
2013-05-03 07:21:00,41.5,24.4,29.26,North,-999,-999.0,-999.0,50,0.00,,,0.00,WSDL version 420,2013-05-03 12:21:00,
2013-05-03 07:26:00,42.0,24.7,29.26,North,-999,-999.0,-999.0,50,0.00,,,0.00,WSDL version 420,2013-05-03 12:26:00,
2013-05-03 07:31:00,42.6,25.1,29.26,North,-999,-999.0,-999.0,49,0.00,,,0.00,WSDL version 420,2013-05-03 12:31:00,
2013-05-03 07:36:00,43.0,25.1,29.26,North,-999,-999.0,-999.0,49,0.00,,,0.00,WSDL version 420,2013-05-03 12:36:00,
2013-05-03 07:41:00,43.0,25.2,29.26,North,-999,-999.0,-999.0,49,0.00,,,0.00,WSDL version 420,2013-05-03 12:41:00,
2013-05-03 07:46:00,44.1,25.7,29.26,North,-999,-999.0,-999.0,47,0.00,,,0.00,WSDL version 420,2013-05-03 12:46:00,
2013-05-03 07:51:00,44.8,25.6,29.26,North,-999,-999.0,-999.0,46,0.00,,,0.00,WSDL version 420,2013-05-03 12:51:00,
2013-05-03 07:56:00,44.6,25.6,29.26,North,-999,-999.0,-999.0,47,0.00,,,0.00,WSDL version 420,2013-05-03 12:56:00,
2013-05-03 08:01:00,44.9,25.6,29.26,North,-999,-999.0,-999.0,46,0.00,,,0.00,WSDL version 420,2013-05-03 13:01:00,
2013-05-03 08:06:00,45.4,25.4,29.26,North,-999,-999.0,-999.0,45,0.00,,,0.00,WSDL version 420,2013-05-03 13:06:00,
2013-05-03 08:11:00,46.0,25.6,29.26,North,-999,-999.0,-999.0,44,0.00,,,0.00,WSDL version 420,2013-05-03 13:11:00,
2013-05-03 08:16:00,46.6,25.5,29.26,North,-999,-999.0,-999.0,43,0.00,,,0.00,WSDL version 420,2013-05-03 13:16:00,
2013-05-03 08:21:00,47.2,25.5,29.26,North,-999,-999.0,-999.0,42,0.00,,,0.00,WSDL version 420,2013-05-03 13:21:00,
2013-05-03 08:26:00,47.8,25.8,29.26,North,-999,-999.0,-999.0,42,0.00,,,0.00,WSDL version 420,2013-05-03 13:26:00,
2013-05-03 08:31:00,48.5,25.9,29.26,North,-999,-999.0,-999.0,41,0.00,,,0.00,WSDL version 420,2013-05-03 13:31:00,
2013-05-03 08:36:00,49.4,26.2,29.26,North,-999,-999.0,-999.0,40,0.00,,,0.00,WSDL version 420,2013-05-03 13:36:00,
2013-05-03 08:41:00,50.0,26.2,29.26,North,-999,-999.0,-999.0,39,0.00,,,0.00,WSDL version 420,2013-05-03 13:41:00,
2013-05-03 08:46:00,50.5,26.5,29.26,North,-999,-999.0,-999.0,39,0.00,,,0.00,WSDL version 420,2013-05-03 13:46:00,
2013-05-03 08:51:00,51.0,26.3,29.26,North,-999,-999.0,-999.0,38,0.00,,,0.00,WSDL version 420,2013-05-03 13:51:00,
2013-05-03 08:56:00,51.7,26.6,29.26,North,-999,-999.0,-999.0,37,0.00,,,0.00,WSDL version 420,2013-05-03 13:56:00,
2013-05-03 09:01:00,51.9,26.5,29.26,North,-999,-999.0,-999.0,37,0.00,,,0.00,WSDL version 420,2013-05-03 14:01:00,
2013-05-03 09:06:00,52.4,26.9,29.26,North,-999,-999.0,-999.0,37,0.00,,,0.00,WSDL version 420,2013-05-03 14:06:00,
2013-05-03 09:11:00,52.8,26.9,29.26,North,-999,-999.0,-999.0,36,0.00,,,0.00,WSDL version 420,2013-05-03 14:11:00,
2013-05-03 09:16:00,53.0,26.8,29.26,North,-999,-999.0,-999.0,36,0.00,,,0.00,WSDL version 420,2013-05-03 14:16:00,
2013-05-03 09:21:00,53.3,27.1,29.26,North,-999,-999.0,-999.0,36,0.00,,,0.00,WSDL version 420,2013-05-03 14:21:00,
2013-05-03 09:26:00,53.9,27.6,29.26,North,-999,-999.0,-999.0,36,0.00,,,0.00,WSDL version 420,2013-05-03 14:26:00,
2013-05-03 09:31:00,54.1,27.7,29.26,North,-999,-999.0,-999.0,36,0.00,,,0.00,WSDL version 420,2013-05-03 14:31:00,
2013-05-03 09:36:00,54.7,27.7,29.26,North,-999,-999.0,-999.0,35,0.00,,,0.00,WSDL version 420,2013-05-03 14:36:00,
2013-05-03 09:41:00,55.5,28.3,29.26,North,-999,-999.0,-999.0,35,0.00,,,0.00,WSDL version 420,2013-05-03 14:41:00,
2013-05-03 09:46:00,56.3,29.0,29.26,North,-999,-999.0,-999.0,35,0.00,,,0.00,WSDL version 420,2013-05-03 14:46:00,
2013-05-03 09:51:00,56.2,28.2,29.26,North,-999,-999.0,-999.0,34,0.00,,,0.00,WSDL version 420,2013-05-03 14:51:00,
2013-05-03 09:56:00,56.3,27.5,29.26,North,-999,-999.0,-999.0,32,0.00,,,0.00,WSDL version 420,2013-05-03 14:56:00,
2013-05-03 10:01:00,57.0,27.9,29.26,North,-999,-999.0,-999.0,32,0.00,,,0.00,WSDL version 420,2013-05-03 15:01:00,
2013-05-03 10:06:00,57.2,27.5,29.26,North,-999,-999.0,-999.0,32,0.00,,,0.00,WSDL version 420,2013-05-03 15:06:00,
2013-05-03 10:11:00,57.5,26.6,29.26,North,-999,-999.0,-999.0,30,0.00,,,0.00,WSDL version 420,2013-05-03 15:11:00,
2013-05-03 10:16:00,57.8,26.0,29.26,North,-999,-999.0,-999.0,29,0.00,,,0.00,WSDL version 420,2013-05-03 15:16:00,
2013-05-03 10:21:00,58.1,26.0,29.26,North,-999,-999.0,-999.0,29,0.00,,,0.00,WSDL version 420,2013-05-03 15:21:00,
2013-05-03 10:26:00,58.4,26.3,29.26,North,-999,-999.0,-999.0,29,0.00,,,0.00,WSDL version 420,2013-05-03 15:26:00,
2013-05-03 10:31:00,58.6,25.8,29.26,North,-999,-999.0,-999.0,28,0.00,,,0.00,WSDL version 420,2013-05-03 15:31:00,
2013-05-03 10:36:00,58.6,25.6,29.26,North,-999,-999.0,-999.0,28,0.00,,,0.00,WSDL version 420,2013-05-03 15:36:00,
2013-05-03 10:41:00,58.4,25.0,29.26,North,-999,-999.0,-999.0,28,0.00,,,0.00,WSDL version 420,2013-05-03 15:41:00,
2013-05-03 10:46:00,58.5,24.8,29.26,North,-999,-999.0,-999.0,28,0.00,,,0.00,WSDL version 420,2013-05-03 15:46:00,
2013-05-03 10:51:00,59.3,25.3,29.26,North,-999,-999.0,-999.0,27,0.00,,,0.00,WSDL version 420,2013-05-03 15:51:00,
2013-05-03 10:56:00,59.2,24.8,29.26,North,-999,-999.0,-999.0,26,0.00,,,0.00,WSDL version 420,2013-05-03 15:56:00,
2013-05-03 11:01:00,59.4,25.1,29.26,North,-999,-999.0,-999.0,27,0.00,,,0.00,WSDL version 420,2013-05-03 16:01:00,
2013-05-03 11:06:00,60.2,25.9,29.26,North,-999,-999.0,-999.0,26,0.00,,,0.00,WSDL version 420,2013-05-03 16:06:00,
2013-05-03 11:11:00,60.1,25.3,29.26,North,-999,-999.0,-999.0,26,0.00,,,0.00,WSDL version 420,2013-05-03 16:11:00,
2013-05-03 11:16:00,60.2,25.2,29.23,North,-999,-999.0,-999.0,26,0.00,,,0.00,WSDL version 420,2013-05-03 16:16:00,
2013-05-03 11:21:00,60.4,25.4,29.23,North,-999,-999.0,-999.0,26,0.00,,,0.00,WSDL version 420,2013-05-03 16:21:00,
2013-05-03 11:26:00,60.5,25.5,29.23,North,-999,-999.0,-999.0,26,0.00,,,0.00,WSDL version 420,2013-05-03 16:26:00,
2013-05-03 11:31:00,60.9,25.5,29.23,North,-999,-999.0,-999.0,25,0.00,,,0.00,WSDL version 420,2013-05-03 16:31:00,
2013-05-03 11:36:00,60.9,24.8,29.23,North,-999,-999.0,-999.0,25,0.00,,,0.00,WSDL version 420,2013-05-03 16:36:00,
2013-05-03 11:41:00,61.0,25.5,29.23,North,-999,-999.0,-999.0,26,0.00,,,0.00,WSDL version 420,2013-05-03 16:41:00,
2013-05-03 11:46:00,61.6,26.1,29.23,North,-999,-999.0,-999.0,25,0.00,,,0.00,WSDL version 420,2013-05-03 16:46:00,
2013-05-03 11:51:00,61.5,25.4,29.23,North,-999,-999.0,-999.0,25,0.00,,,0.00,WSDL version 420,2013-05-03 16:51:00,
2013-05-03 11:56:00,62.0,26.4,29.23,North,-999,-999.0,-999.0,26,0.00,,,0.00,WSDL version 420,2013-05-03 16:56:00,
2013-05-03 12:01:00,62.4,26.4,29.23,North,-999,-999.0,-999.0,25,0.00,,,0.00,WSDL version 420,2013-05-03 17:01:00,
2013-05-03 12:06:00,62.5,26.2,29.23,North,-999,-999.0,-999.0,25,0.00,,,0.00,WSDL version 420,2013-05-03 17:06:00,
2013-05-03 12:11:00,63.1,26.7,29.23,North,-999,-999.0,-999.0,25,0.00,,,0.00,WSDL version 420,2013-05-03 17:11:00,
2013-05-03 12:16:00,63.0,26.1,29.23,North,-999,-999.0,-999.0,25,0.00,,,0.00,WSDL version 420,2013-05-03 17:16:00,
2013-05-03 12:21:00,63.5,27.0,29.23,North,-999,-999.0,-999.0,25,0.00,,,0.00,WSDL version 420,2013-05-03 17:21:00,
2013-05-03 12:26:00,64.3,27.5,29.23,North,-999,-999.0,-999.0,24,0.00,,,0.00,WSDL version 420,2013-05-03 17:26:00,
2013-05-03 12:31:00,64.8,27.2,29.21,North,-999,-999.0,-999.0,24,0.00,,,0.00,WSDL version 420,2013-05-03 17:31:00,
2013-05-03 12:36:00,65.1,27.5,29.21,North,-999,-999.0,-999.0,24,0.00,,,0.00,WSDL version 420,2013-05-03 17:36:00,
2013-05-03 12:41:00,65.2,27.0,29.21,North,-999,-999.0,-999.0,23,0.00,,,0.00,WSDL version 420,2013-05-03 17:41:00,
2013-05-03 12:46:00,65.0,26.4,29.21,North,-999,-999.0,-999.0,23,0.00,,,0.00,WSDL version 420,2013-05-03 17:46:00,
2013-05-03 12:51:00,64.7,26.1,29.21,North,-999,-999.0,-999.0,23,0.00,,,0.00,WSDL version 420,2013-05-03 17:51:00,
2013-05-03 12:56:00,65.0,26.3,29.21,North,-999,-999.0,-999.0,23,0.00,,,0.00,WSDL version 420,2013-05-03 17:56:00,
2013-05-03 13:01:00,65.6,26.8,29.21,North,-999,-999.0,-999.0,23,0.00,,,0.00,WSDL version 420,2013-05-03 18:01:00,
2013-05-03 13:06:00,66.3,27.4,29.21,North,-999,-999.0,-999.0,23,0.00,,,0.00,WSDL version 420,2013-05-03 18:06:00,
2013-05-03 13:11:00,66.6,27.5,29.21,North,-999,-999.0,-999.0,23,0.00,,,0.00,WSDL version 420,2013-05-03 18:11:00,
2013-05-03 13:16:00,66.2,26.6,29.18,North,-999,-999.0,-999.0,23,0.00,,,0.00,WSDL version 420,2013-05-03 18:16:00,
2013-05-03 13:21:00,65.8,24.3,29.18,North,-999,-999.0,-999.0,23,0.00,,,0.00,WSDL version 420,2013-05-03 18:21:00,
2013-05-03 13:26:00,66.3,26.8,29.18,North,-999,-999.0,-999.0,22,0.00,,,0.00,WSDL version 420,2013-05-03 18:26:00,
2013-05-03 13:31:00,66.9,26.1,29.18,North,-999,-999.0,-999.0,20,0.00,,,0.00,WSDL version 420,2013-05-03 18:31:00,
2013-05-03 13:36:00,66.6,26.6,29.18,North,-999,-999.0,-999.0,22,0.00,,,0.00,WSDL version 420,2013-05-03 18:36:00,
2013-05-03 13:41:00,66.9,26.8,29.18,North,-999,-999.0,-999.0,22,0.00,,,0.00,WSDL version 420,2013-05-03 18:41:00,
2013-05-03 13:46:00,66.8,25.4,29.18,North,-999,-999.0,-999.0,21,0.00,,,0.00,WSDL version 420,2013-05-03 18:46:00,
2013-05-03 13:51:00,66.3,24.0,29.18,North,-999,-999.0,-999.0,20,0.00,,,0.00,WSDL version 420,2013-05-03 18:51:00,
2013-05-03 13:56:00,66.6,26.2,29.18,North,-999,-999.0,-999.0,22,0.00,,,0.00,WSDL version 420,2013-05-03 18:56:00,
2013-05-03 14:01:00,66.8,26.8,29.15,North,-999,-999.0,-999.0,22,0.00,,,0.00,WSDL version 420,2013-05-03 19:01:00,
2013-05-03 14:06:00,66.9,26.8,29.15,North,-999,-999.0,-999.0,22,0.00,,,0.00,WSDL version 420,2013-05-03 19:06:00,
2013-05-03 14:11:00,66.8,25.2,29.15,North,-999,-999.0,-999.0,22,0.00,,,0.00,WSDL version 420,2013-05-03 19:11:00,
2013-05-03 14:16:00,66.8,26.8,29.15,North,-999,-999.0,-999.0,22,0.00,,,0.00,WSDL version 420,2013-05-03 19:16:00,
2013-05-03 14:21:00,67.2,27.1,29.15,North,-999,-999.0,-999.0,22,0.00,,,0.00,WSDL version 420,2013-05-03 19:21:00,
2013-05-03 14:26:00,67.3,27.2,29.15,North,-999,-999.0,-999.0,22,0.00,,,0.00,WSDL version 420,2013-05-03 19:26:00,
2013-05-03 14:31:00,66.7,24.9,29.15,North,-999,-999.0,-999.0,20,0.00,,,0.00,WSDL version 420,2013-05-03 19:31:00,
2013-05-03 14:36:00,66.8,26.0,29.15,North,-999,-999.0,-999.0,22,0.00,,,0.00,WSDL version 420,2013-05-03 19:36:00,
2013-05-03 14:41:00,67.1,27.0,29.15,North,-999,-999.0,-999.0,22,0.00,,,0.00,WSDL version 420,2013-05-03 19:41:00,
2013-05-03 14:46:00,67.3,27.2,29.12,North,-999,-999.0,-999.0,22,0.00,,,0.00,WSDL version 420,2013-05-03 19:46:00,
2013-05-03 14:51:00,67.0,25.0,29.12,North,-999,-999.0,-999.0,20,0.00,,,0.00,WSDL version 420,2013-05-03 19:51:00,
2013-05-03 14:56:00,66.7,24.4,29.12,North,-999,-999.0,-999.0,20,0.00,,,0.00,WSDL version 420,2013-05-03 19:56:00,
2013-05-03 15:01:00,66.7,24.9,29.12,North,-999,-999.0,-999.0,22,0.00,,,0.00,WSDL version 420,2013-05-03 20:01:00,
2013-05-03 15:06:00,67.3,27.2,29.12,North,-999,-999.0,-999.0,22,0.00,,,0.00,WSDL version 420,2013-05-03 20:06:00,
2013-05-03 15:11:00,67.4,27.3,29.12,North,-999,-999.0,-999.0,22,0.00,,,0.00,WSDL version 420,2013-05-03 20:11:00,
2013-05-03 15:16:00,67.6,27.4,29.12,North,-999,-999.0,-999.0,22,0.00,,,0.00,WSDL version 420,2013-05-03 20:16:00,
2013-05-03 15:21:00,67.6,27.5,29.12,North,-999,-999.0,-999.0,22,0.00,,,0.00,WSDL version 420,2013-05-03 20:21:00,
2013-05-03 15:26:00,67.6,27.1,29.12,North,-999,-999.0,-999.0,22,0.00,,,0.00,WSDL version 420,2013-05-03 20:26:00,
2013-05-03 15:31:00,67.7,27.6,29.09,North,-999,-999.0,-999.0,22,0.00,,,0.00,WSDL version 420,2013-05-03 20:31:00,
2013-05-03 15:36:00,67.7,27.5,29.09,North,-999,-999.0,-999.0,22,0.00,,,0.00,WSDL version 420,2013-05-03 20:36:00,
2013-05-03 15:41:00,67.8,27.6,29.09,North,-999,-999.0,-999.0,22,0.00,,,0.00,WSDL version 420,2013-05-03 20:41:00,
2013-05-03 15:46:00,67.6,26.5,29.09,North,-999,-999.0,-999.0,22,0.00,,,0.00,WSDL version 420,2013-05-03 20:46:00,
2013-05-03 15:51:00,67.7,25.7,29.09,North,-999,-999.0,-999.0,20,0.00,,,0.00,WSDL version 420,2013-05-03 20:51:00,
2013-05-03 15:56:00,67.6,25.2,29.09,North,-999,-999.0,-999.0,20,0.00,,,0.00,WSDL version 420,2013-05-03 20:56:00,
2013-05-03 16:01:00,67.5,25.1,29.09,North,-999,-999.0,-999.0,20,0.00,,,0.00,WSDL version 420,2013-05-03 21:01:00,
2013-05-03 16:06:00,67.3,24.9,29.09,North,-999,-999.0,-999.0,20,0.00,,,0.00,WSDL version 420,2013-05-03 21:06:00,
2013-05-03 16:11:00,67.4,25.4,29.09,North,-999,-999.0,-999.0,22,0.00,,,0.00,WSDL version 420,2013-05-03 21:11:00,
2013-05-03 16:16:00,67.6,25.6,29.09,North,-999,-999.0,-999.0,20,0.00,,,0.00,WSDL version 420,2013-05-03 21:16:00,
2013-05-03 16:21:00,67.3,24.9,29.09,North,-999,-999.0,-999.0,20,0.00,,,0.00,WSDL version 420,2013-05-03 21:21:00,
2013-05-03 16:26:00,67.6,25.1,29.09,North,-999,-999.0,-999.0,20,0.00,,,0.00,WSDL version 420,2013-05-03 21:26:00,
2013-05-03 16:31:00,67.2,24.8,29.06,North,-999,-999.0,-999.0,20,0.00,,,0.00,WSDL version 420,2013-05-03 21:31:00,
2013-05-03 16:36:00,67.2,24.8,29.06,North,-999,-999.0,-999.0,20,0.00,,,0.00,WSDL version 420,2013-05-03 21:36:00,
2013-05-03 16:41:00,67.2,24.8,29.06,North,-999,-999.0,-999.0,20,0.00,,,0.00,WSDL version 420,2013-05-03 21:41:00,
2013-05-03 16:46:00,67.3,24.9,29.06,North,-999,-999.0,-999.0,20,0.00,,,0.00,WSDL version 420,2013-05-03 21:46:00,
2013-05-03 16:51:00,67.3,24.9,29.06,North,-999,-999.0,-999.0,20,0.00,,,0.00,WSDL version 420,2013-05-03 21:51:00,
2013-05-03 16:56:00,67.7,25.2,29.06,North,-999,-999.0,-999.0,20,0.00,,,0.00,WSDL version 420,2013-05-03 21:56:00,
2013-05-03 17:01:00,67.6,25.2,29.06,North,-999,-999.0,-999.0,20,0.00,,,0.00,WSDL version 420,2013-05-03 22:01:00,
2013-05-03 17:06:00,67.6,25.1,29.06,North,-999,-999.0,-999.0,20,0.00,,,0.00,WSDL version 420,2013-05-03 22:06:00,
2013-05-03 17:11:00,67.4,25.0,29.06,North,-999,-999.0,-999.0,20,0.00,,,0.00,WSDL version 420,2013-05-03 22:11:00,
2013-05-03 17:16:00,67.5,25.0,29.06,North,-999,-999.0,-999.0,20,0.00,,,0.00,WSDL version 420,2013-05-03 22:16:00,
2013-05-03 17:21:00,67.2,22.8,29.06,North,-999,-999.0,-999.0,20,0.00,,,0.00,WSDL version 420,2013-05-03 22:21:00,
2013-05-03 17:26:00,67.1,23.5,29.06,North,-999,-999.0,-999.0,20,0.00,,,0.00,WSDL version 420,2013-05-03 22:26:00,
2013-05-03 17:31:00,67.2,24.1,29.06,North,-999,-999.0,-999.0,17,0.00,,,0.00,WSDL version 420,2013-05-03 22:31:00,
2013-05-03 17:36:00,67.1,22.2,29.06,North,-999,-999.0,-999.0,17,0.00,,,0.00,WSDL version 420,2013-05-03 22:36:00,
2013-05-03 17:41:00,67.3,24.9,29.06,North,-999,-999.0,-999.0,20,0.00,,,0.00,WSDL version 420,2013-05-03 22:41:00,
2013-05-03 17:46:00,67.3,24.9,29.06,North,-999,-999.0,-999.0,20,0.00,,,0.00,WSDL version 420,2013-05-03 22:46:00,
2013-05-03 17:51:00,67.3,23.6,29.06,North,-999,-999.0,-999.0,17,0.00,,,0.00,WSDL version 420,2013-05-03 22:51:00,
2013-05-03 17:56:00,67.2,24.0,29.06,North,-999,-999.0,-999.0,20,0.00,,,0.00,WSDL version 420,2013-05-03 22:56:00,
2013-05-03 18:01:00,67.1,22.4,29.03,North,-999,-999.0,-999.0,20,0.00,,,0.00,WSDL version 420,2013-05-03 23:01:00,
2013-05-03 18:06:00,67.1,24.7,29.03,North,-999,-999.0,-999.0,20,0.00,,,0.00,WSDL version 420,2013-05-03 23:06:00,
2013-05-03 18:11:00,67.1,24.7,29.03,North,-999,-999.0,-999.0,20,0.00,,,0.00,WSDL version 420,2013-05-03 23:11:00,
2013-05-03 18:16:00,67.0,22.3,29.03,North,-999,-999.0,-999.0,17,0.00,,,0.00,WSDL version 420,2013-05-03 23:16:00,
2013-05-03 18:21:00,66.7,20.6,29.03,North,-999,-999.0,-999.0,17,0.00,,,0.00,WSDL version 420,2013-05-03 23:21:00,
2013-05-03 18:26:00,66.7,20.6,29.03,North,-999,-999.0,-999.0,17,0.00,,,0.00,WSDL version 420,2013-05-03 23:26:00,
2013-05-03 18:31:00,66.7,20.5,29.03,North,-999,-999.0,-999.0,17,0.00,,,0.00,WSDL version 420,2013-05-03 23:31:00,
2013-05-03 18:36:00,66.6,20.4,29.03,North,-999,-999.0,-999.0,17,0.00,,,0.00,WSDL version 420,2013-05-03 23:36:00,
2013-05-03 18:41:00,66.6,22.0,29.03,North,-999,-999.0,-999.0,17,0.00,,,0.00,WSDL version 420,2013-05-03 23:41:00,
2013-05-03 18:46:00,66.5,23.6,29.03,North,-999,-999.0,-999.0,20,0.00,,,0.00,WSDL version 420,2013-05-03 23:46:00,
2013-05-03 18:51:00,66.3,24.0,29.03,North,-999,-999.0,-999.0,20,0.00,,,0.00,WSDL version 420,2013-05-03 23:51:00,
2013-05-03 18:56:00,66.2,21.9,29.03,North,-999,-999.0,-999.0,18,0.00,,,0.00,WSDL version 420,2013-05-03 23:56:00,
2013-05-03 19:01:00,66.0,23.0,29.03,North,-999,-999.0,-999.0,20,0.00,,,0.00,WSDL version 420,2013-05-04 00:01:00,
2013-05-03 20:57:00,55.8,20.5,29.03,North,-999,-999.0,-999.0,25,0.00,,,0.00,WSDL version 420,2013-05-04 01:57:00,
2013-05-03 21:02:00,55.4,20.5,29.06,North,-999,-999.0,-999.0,26,0.00,,,0.00,WSDL version 420,2013-05-04 02:02:00,
2013-05-03 21:07:00,54.9,20.7,29.06,North,-999,-999.0,-999.0,26,0.00,,,0.00,WSDL version 420,2013-05-04 02:07:00,
2013-05-03 21:12:00,54.6,20.4,29.06,North,-999,-999.0,-999.0,26,0.00,,,0.00,WSDL version 420,2013-05-04 02:12:00,
2013-05-03 21:17:00,53.7,19.9,29.03,North,-999,-999.0,-999.0,27,0.00,,,0.00,WSDL version 420,2013-05-04 02:17:00,
2013-05-03 21:22:00,52.6,19.6,29.03,North,-999,-999.0,-999.0,27,0.00,,,0.00,WSDL version 420,2013-05-04 02:22:00,
2013-05-03 21:27:00,51.9,19.0,29.03,North,-999,-999.0,-999.0,27,0.00,,,0.00,WSDL version 420,2013-05-04 02:27:00,
2013-05-03 21:32:00,51.4,19.1,29.06,North,-999,-999.0,-999.0,28,0.00,,,0.00,WSDL version 420,2013-05-04 02:32:00,
2013-05-03 21:37:00,50.7,18.8,29.06,North,-999,-999.0,-999.0,28,0.00,,,0.00,WSDL version 420,2013-05-04 02:37:00,
2013-05-03 21:42:00,50.7,18.8,29.06,North,-999,-999.0,-999.0,28,0.00,,,0.00,WSDL version 420,2013-05-04 02:42:00,
2013-05-03 21:47:00,51.0,19.0,29.06,North,-999,-999.0,-999.0,28,0.00,,,0.00,WSDL version 420,2013-05-04 02:47:00,
2013-05-03 21:52:00,51.0,19.1,29.06,North,-999,-999.0,-999.0,28,0.00,,,0.00,WSDL version 420,2013-05-04 02:52:00,
2013-05-03 21:57:00,50.7,19.3,29.06,North,-999,-999.0,-999.0,29,0.00,,,0.00,WSDL version 420,2013-05-04 02:57:00,
2013-05-03 22:02:00,50.5,19.4,29.06,North,-999,-999.0,-999.0,29,0.00,,,0.00,WSDL version 420,2013-05-04 03:02:00,
2013-05-03 22:07:00,50.2,19.2,29.06,North,-999,-999.0,-999.0,29,0.00,,,0.00,WSDL version 420,2013-05-04 03:07:00,
2013-05-03 22:12:00,50.2,19.2,29.06,North,-999,-999.0,-999.0,29,0.00,,,0.00,WSDL version 420,2013-05-04 03:12:00,
2013-05-03 22:17:00,49.8,18.8,29.06,North,-999,-999.0,-999.0,29,0.00,,,0.00,WSDL version 420,2013-05-04 03:17:00,
2013-05-03 22:22:00,49.4,19.0,29.06,North,-999,-999.0,-999.0,30,0.00,,,0.00,WSDL version 420,2013-05-04 03:22:00,
2013-05-03 22:27:00,49.1,19.0,29.06,North,-999,-999.0,-999.0,30,0.00,,,0.00,WSDL version 420,2013-05-04 03:27:00,
2013-05-03 22:32:00,48.8,18.8,29.06,North,-999,-999.0,-999.0,30,0.00,,,0.00,WSDL version 420,2013-05-04 03:32:00,
2013-05-03 22:37:00,48.5,18.5,29.06,North,-999,-999.0,-999.0,30,0.00,,,0.00,WSDL version 420,2013-05-04 03:37:00,
2013-05-03 22:42:00,48.3,18.3,29.06,North,-999,-999.0,-999.0,30,0.00,,,0.00,WSDL version 420,2013-05-04 03:42:00,
2013-05-03 22:47:00,48.0,18.7,29.06,North,-999,-999.0,-999.0,31,0.00,,,0.00,WSDL version 420,2013-05-04 03:47:00,
2013-05-03 22:52:00,47.8,18.6,29.06,North,-999,-999.0,-999.0,31,0.00,,,0.00,WSDL version 420,2013-05-04 03:52:00,
2013-05-03 22:57:00,47.4,18.3,29.06,North,-999,-999.0,-999.0,31,0.00,,,0.00,WSDL version 420,2013-05-04 03:57:00,
2013-05-03 23:02:00,47.3,18.2,29.06,North,-999,-999.0,-999.0,31,0.00,,,0.00,WSDL version 420,2013-05-04 04:02:00,
2013-05-03 23:07:00,47.1,18.4,29.06,North,-999,-999.0,-999.0,32,0.00,,,0.00,WSDL version 420,2013-05-04 04:07:00,
2013-05-03 23:12:00,46.9,18.6,29.06,North,-999,-999.0,-999.0,32,0.00,,,0.00,WSDL version 420,2013-05-04 04:12:00,
2013-05-03 23:17:00,46.7,18.4,29.06,North,-999,-999.0,-999.0,32,0.00,,,0.00,WSDL version 420,2013-05-04 04:17:00,
2013-05-03 23:22:00,46.3,19.0,29.06,North,-999,-999.0,-999.0,34,0.00,,,0.00,WSDL version 420,2013-05-04 04:22:00,
2013-05-03 23:27:00,46.0,19.2,29.06,North,-999,-999.0,-999.0,34,0.00,,,0.00,WSDL version 420,2013-05-04 04:27:00,
2013-05-03 23:32:00,46.0,19.2,29.03,North,-999,-999.0,-999.0,34,0.00,,,0.00,WSDL version 420,2013-05-04 04:32:00,
2013-05-03 23:37:00,45.9,19.1,29.03,North,-999,-999.0,-999.0,34,0.00,,,0.00,WSDL version 420,2013-05-04 04:37:00,
2013-05-03 23:42:00,45.5,18.9,29.03,North,-999,-999.0,-999.0,35,0.00,,,0.00,WSDL version 420,2013-05-04 04:42:00,
2013-05-03 23:47:00,45.2,19.2,29.03,North,-999,-999.0,-999.0,35,0.00,,,0.00,WSDL version 420,2013-05-04 04:47:00,
2013-05-03 23:52:00,45.1,19.1,29.03,North,-999,-999.0,-999.0,35,0.00,,,0.00,WSDL version 420,2013-05-04 04:52:00,
2013-05-03 23:57:00,44.9,19.0,29.03,North,-999,-999.0,-999.0,35,0.00,,,0.00,WSDL version 420,2013-05-04 04:57:00,